Time,TemperatureF,DewpointF,PressureIn,WindDirection,WindDirectionDegrees,WindSpeedMPH,WindSpeedGustMPH,Humidity,HourlyPrecipIn,Conditions,Clouds,dailyrainin,SoftwareType,DateUTC
2013-02-23 00:00:00,26.9,24.4,30.02,West,264,11.2,11.6,90,0.00,,,0.00,VWS V13.01,2013-02-23 06:00:00,
2013-02-23 00:01:00,26.2,21.0,30.02,SW,236,5.2,5.8,80,0.00,,,0.00,VWS V13.01,2013-02-23 06:01:00,
2013-02-23 00:02:00,26.5,21.3,30.01,SW,233,6.0,6.0,80,0.00,,,0.00,VWS V13.01,2013-02-23 06:02:00,
2013-02-23 00:03:00,26.3,21.2,30.01,SW,231,6.0,6.6,81,0.00,,,0.00,VWS V13.01,2013-02-23 06:03:00,
2013-02-23 00:04:00,26.2,21.1,30.01,SW,226,6.3,6.5,81,0.00,,,0.00,VWS V13.01,2013-02-23 06:04:00,
2013-02-23 00:05:00,26.8,24.4,30.02,WSW,257,12.7,13.4,91,0.00,,,0.00,VWS V13.01,2013-02-23 06:05:00,
2013-02-23 00:06:00,26.2,21.2,30.01,SW,236,5.8,6.3,81,0.00,,,0.00,VWS V13.01,2013-02-23 06:06:00,
2013-02-23 00:07:00,26.1,21.2,30.01,SW,235,5.8,6.6,81,0.00,,,0.00,VWS V13.01,2013-02-23 06:07:00,
2013-02-23 00:08:00,26.1,21.2,30.02,SW,232,6.0,6.7,81,0.00,,,0.00,VWS V13.01,2013-02-23 06:08:00,
2013-02-23 00:09:00,26.1,21.3,30.01,WSW,245,6.6,7.1,82,0.00,,,0.00,VWS V13.01,2013-02-23 06:09:00,
2013-02-23 00:10:00,26.6,24.2,30.02,West,260,13.9,13.9,91,0.00,,,0.00,VWS V13.01,2013-02-23 06:10:00,
2013-02-23 00:11:00,25.9,21.1,30.02,WSW,246,2.0,6.0,82,0.00,,,0.00,VWS V13.01,2013-02-23 06:11:00,
2013-02-23 00:12:00,25.9,21.2,30.02,WSW,245,4.9,5.7,82,0.00,,,0.00,VWS V13.01,2013-02-23 06:12:00,
2013-02-23 00:13:00,25.8,21.1,30.02,WSW,248,2.0,4.4,82,0.00,,,0.00,VWS V13.01,2013-02-23 06:13:00,
2013-02-23 00:14:00,25.9,21.2,30.02,WSW,248,0.0,0.0,82,0.00,,,0.00,VWS V13.01,2013-02-23 06:14:00,
2013-02-23 00:15:00,26.7,24.3,30.02,WSW,248,7.5,11.3,90,0.00,,,0.00,VWS V13.01,2013-02-23 06:15:00,
2013-02-23 00:16:00,25.7,21.0,30.02,WSW,248,0.0,0.0,82,0.00,,,0.00,VWS V13.01,2013-02-23 06:16:00,
2013-02-23 00:17:00,25.6,20.9,30.02,WSW,248,0.0,0.0,82,0.00,,,0.00,VWS V13.01,2013-02-23 06:17:00,
2013-02-23 00:18:00,25.8,21.1,30.02,WSW,248,0.0,0.0,82,0.00,,,0.00,VWS V13.01,2013-02-23 06:18:00,
2013-02-23 00:19:00,25.7,21.1,30.02,WSW,248,0.0,0.0,82,0.00,,,0.00,VWS V13.01,2013-02-23 06:19:00,
2013-02-23 00:20:00,27.0,24.6,30.02,West,269,8.4,11.4,90,0.00,,,0.00,VWS V13.01,2013-02-23 06:20:00,
2013-02-23 00:21:00,25.6,21.1,30.02,WSW,248,0.0,0.0,83,0.00,,,0.00,VWS V13.01,2013-02-23 06:21:00,
2013-02-23 00:22:00,25.5,21.0,30.02,WSW,248,0.0,0.0,83,0.00,,,0.00,VWS V13.01,2013-02-23 06:22:00,
2013-02-23 00:23:00,25.7,21.1,30.02,WSW,248,0.0,0.0,82,0.00,,,0.00,VWS V13.01,2013-02-23 06:23:00,
2013-02-23 00:24:00,25.7,21.2,30.02,WSW,248,0.0,0.0,83,0.00,,,0.00,VWS V13.01,2013-02-23 06:24:00,
2013-02-23 00:25:00,26.6,24.1,30.02,SW,232,8.1,12.0,90,0.00,,,0.00,VWS V13.01,2013-02-23 06:25:00,
2013-02-23 00:26:00,25.3,20.9,30.02,WSW,248,0.0,0.0,83,0.00,,,0.00,VWS V13.01,2013-02-23 06:26:00,
2013-02-23 00:27:00,25.4,21.0,30.02,WSW,248,0.0,0.0,83,0.00,,,0.00,VWS V13.01,2013-02-23 06:27:00,
2013-02-23 00:28:00,25.6,21.2,30.02,WSW,248,0.0,0.0,83,0.00,,,0.00,VWS V13.01,2013-02-23 06:28:00,
2013-02-23 00:29:00,25.2,20.9,30.02,WSW,248,0.0,0.0,83,0.00,,,0.00,VWS V13.01,2013-02-23 06:29:00,
2013-02-23 00:30:00,27.0,24.5,30.02,West,263,12.1,12.7,90,0.00,,,0.00,VWS V13.01,2013-02-23 06:30:00,
2013-02-23 00:31:00,25.3,20.9,30.02,WSW,248,0.0,0.0,83,0.00,,,0.00,VWS V13.01,2013-02-23 06:31:00,
2013-02-23 00:32:00,25.1,20.7,30.02,WSW,248,0.0,0.0,83,0.00,,,0.00,VWS V13.01,2013-02-23 06:32:00,
2013-02-23 00:33:00,25.2,20.9,30.02,WSW,248,0.0,0.0,83,0.00,,,0.00,VWS V13.01,2013-02-23 06:33:00,
2013-02-23 00:34:00,25.1,20.8,30.02,WSW,248,0.0,0.0,83,0.00,,,0.00,VWS V13.01,2013-02-23 06:34:00,
2013-02-23 00:35:00,26.6,23.9,30.02,West,260,16.4,16.4,89,0.00,,,0.00,VWS V13.01,2013-02-23 06:35:00,
2013-02-23 00:36:00,25.1,20.9,30.02,WSW,240,5.2,6.1,84,0.00,,,0.00,VWS V13.01,2013-02-23 06:36:00,
2013-02-23 00:37:00,25.2,21.0,30.02,West,264,5.0,6.0,84,0.00,,,0.00,VWS V13.01,2013-02-23 06:37:00,
2013-02-23 00:38:00,25.2,21.0,30.02,WSW,256,5.0,6.4,84,0.00,,,0.00,VWS V13.01,2013-02-23 06:38:00,
2013-02-23 00:39:00,25.1,20.9,30.02,WSW,243,4.8,6.1,84,0.00,,,0.00,VWS V13.01,2013-02-23 06:39:00,
2013-02-23 00:40:00,26.5,23.7,30.02,West,267,12.2,13.2,89,0.00,,,0.00,VWS V13.01,2013-02-23 06:40:00,
2013-02-23 00:41:00,25.1,21.0,30.02,WSW,240,5.7,5.7,84,0.00,,,0.00,VWS V13.01,2013-02-23 06:41:00,
2013-02-23 00:42:00,25.0,20.9,30.02,WSW,255,5.5,5.5,84,0.00,,,0.00,VWS V13.01,2013-02-23 06:42:00,
2013-02-23 00:43:00,25.1,21.0,30.02,WSW,246,5.0,5.8,84,0.00,,,0.00,VWS V13.01,2013-02-23 06:43:00,
2013-02-23 00:44:00,25.2,21.2,30.02,WSW,255,5.6,5.9,84,0.00,,,0.00,VWS V13.01,2013-02-23 06:44:00,
2013-02-23 00:45:00,26.7,24.0,30.02,WSW,257,11.2,15.4,89,0.00,,,0.00,VWS V13.01,2013-02-23 06:45:00,
2013-02-23 00:46:00,25.2,21.2,30.02,WSW,239,5.5,6.0,84,0.00,,,0.00,VWS V13.01,2013-02-23 06:46:00,
2013-02-23 00:47:00,25.1,21.1,30.02,WSW,243,6.9,7.1,84,0.00,,,0.00,VWS V13.01,2013-02-23 06:47:00,
2013-02-23 00:48:00,25.0,21.0,30.02,WSW,255,7.5,8.8,84,0.00,,,0.00,VWS V13.01,2013-02-23 06:48:00,
2013-02-23 00:49:00,25.0,21.0,30.02,WSW,238,8.3,8.7,84,0.00,,,0.00,VWS V13.01,2013-02-23 06:49:00,
2013-02-23 00:50:00,26.6,23.9,30.02,WSW,257,9.5,10.4,89,0.00,,,0.00,VWS V13.01,2013-02-23 06:50:00,
2013-02-23 00:51:00,25.0,21.1,30.02,West,264,6.9,8.9,85,0.00,,,0.00,VWS V13.01,2013-02-23 06:51:00,
2013-02-23 00:52:00,25.0,21.1,30.02,WSW,246,6.0,7.6,85,0.00,,,0.00,VWS V13.01,2013-02-23 06:52:00,
2013-02-23 00:53:00,25.0,21.1,30.02,WSW,248,5.7,8.3,85,0.00,,,0.00,VWS V13.01,2013-02-23 06:53:00,
2013-02-23 00:54:00,25.0,21.2,30.02,West,267,6.8,8.5,85,0.00,,,0.00,VWS V13.01,2013-02-23 06:54:00,
2013-02-23 00:55:00,26.5,23.8,30.02,WSW,243,8.8,11.3,89,0.00,,,0.00,VWS V13.01,2013-02-23 06:55:00,
2013-02-23 00:56:00,25.0,21.2,30.02,WSW,242,8.4,8.9,85,0.00,,,0.00,VWS V13.01,2013-02-23 06:56:00,
2013-02-23 00:57:00,25.2,21.4,30.02,WSW,248,7.0,8.5,85,0.00,,,0.00,VWS V13.01,2013-02-23 06:57:00,
2013-02-23 00:58:00,25.0,21.2,30.02,WSW,252,6.4,7.5,85,0.00,,,0.00,VWS V13.01,2013-02-23 06:58:00,
2013-02-23 00:59:00,25.0,21.2,30.02,WSW,246,6.3,7.6,85,0.00,,,0.00,VWS V13.01,2013-02-23 06:59:00,
2013-02-23 01:00:00,26.6,23.9,30.02,West,262,11.2,13.2,89,0.00,,,0.00,VWS V13.01,2013-02-23 07:00:00,
2013-02-23 01:01:00,25.1,21.3,30.02,WSW,248,6.3,7.9,85,0.00,,,0.00,VWS V13.01,2013-02-23 07:01:00,
2013-02-23 01:02:00,24.9,21.1,30.02,WSW,256,6.0,6.8,85,0.00,,,0.00,VWS V13.01,2013-02-23 07:02:00,
2013-02-23 01:03:00,24.8,21.0,30.02,WSW,255,5.3,7.3,85,0.00,,,0.00,VWS V13.01,2013-02-23 07:03:00,
2013-02-23 01:04:00,24.8,21.0,30.02,West,271,4.6,5.5,85,0.00,,,0.00,VWS V13.01,2013-02-23 07:04:00,
2013-02-23 01:05:00,26.5,23.8,30.02,West,262,10.3,13.9,89,0.00,,,0.00,VWS V13.01,2013-02-23 07:05:00,
2013-02-23 01:06:00,24.8,21.0,30.02,WSW,252,4.8,5.6,85,0.00,,,0.00,VWS V13.01,2013-02-23 07:06:00,
2013-02-23 01:07:00,24.9,21.2,30.02,West,266,5.5,5.5,86,0.00,,,0.00,VWS V13.01,2013-02-23 07:07:00,
2013-02-23 01:08:00,24.8,21.1,30.02,West,280,5.2,6.3,86,0.00,,,0.00,VWS V13.01,2013-02-23 07:08:00,
2013-02-23 01:09:00,24.7,21.1,30.02,WSW,257,5.4,7.5,86,0.00,,,0.00,VWS V13.01,2013-02-23 07:09:00,
2013-02-23 01:10:00,26.5,23.9,30.02,West,266,7.5,13.5,90,0.00,,,0.00,VWS V13.01,2013-02-23 07:10:00,
2013-02-23 01:11:00,24.9,21.2,30.02,WSW,253,7.0,7.0,86,0.00,,,0.00,VWS V13.01,2013-02-23 07:11:00,
2013-02-23 01:12:00,24.7,21.1,30.02,West,264,5.8,6.4,86,0.00,,,0.00,VWS V13.01,2013-02-23 07:12:00,
2013-02-23 01:13:00,24.6,21.0,30.02,WSW,253,5.6,6.6,86,0.00,,,0.00,VWS V13.01,2013-02-23 07:13:00,
2013-02-23 01:14:00,24.7,21.1,30.02,West,263,4.9,6.2,86,0.00,,,0.00,VWS V13.01,2013-02-23 07:14:00,
2013-02-23 01:15:00,26.7,24.0,30.02,West,267,12.5,12.7,89,0.00,,,0.00,VWS V13.01,2013-02-23 07:15:00,
2013-02-23 01:16:00,24.7,21.1,30.02,WSW,253,5.5,5.6,86,0.00,,,0.00,VWS V13.01,2013-02-23 07:16:00,
2013-02-23 01:17:00,24.7,21.0,30.02,WSW,256,5.3,5.5,86,0.00,,,0.00,VWS V13.01,2013-02-23 07:17:00,
2013-02-23 01:18:00,24.9,21.2,30.02,WSW,248,5.0,5.4,86,0.00,,,0.00,VWS V13.01,2013-02-23 07:18:00,
2013-02-23 01:19:00,24.7,21.0,30.02,WSW,252,5.7,5.7,86,0.00,,,0.00,VWS V13.01,2013-02-23 07:19:00,
2013-02-23 01:20:00,26.4,23.6,30.02,West,264,11.0,15.8,89,0.00,,,0.00,VWS V13.01,2013-02-23 07:20:00,
2013-02-23 01:21:00,24.7,20.9,30.02,West,277,4.9,5.7,85,0.00,,,0.00,VWS V13.01,2013-02-23 07:21:00,
2013-02-23 01:22:00,24.8,21.0,30.02,WSW,252,6.3,6.5,85,0.00,,,0.00,VWS V13.01,2013-02-23 07:22:00,
2013-02-23 01:23:00,24.8,21.0,30.02,West,263,7.4,7.4,85,0.00,,,0.00,VWS V13.01,2013-02-23 07:23:00,
2013-02-23 01:24:00,24.5,20.7,30.02,West,262,7.7,8.0,85,0.00,,,0.00,VWS V13.01,2013-02-23 07:24:00,
2013-02-23 01:25:00,26.6,23.9,30.02,West,259,11.4,15.0,89,0.00,,,0.00,VWS V13.01,2013-02-23 07:25:00,
2013-02-23 01:26:00,24.7,21.0,30.02,West,270,8.1,8.4,86,0.00,,,0.00,VWS V13.01,2013-02-23 07:26:00,
2013-02-23 01:27:00,24.8,21.1,30.02,West,269,8.1,8.5,86,0.00,,,0.00,VWS V13.01,2013-02-23 07:27:00,
2013-02-23 01:28:00,24.7,21.0,30.02,West,277,7.9,8.3,86,0.00,,,0.00,VWS V13.01,2013-02-23 07:28:00,
2013-02-23 01:29:00,24.6,20.9,30.02,West,269,7.3,8.5,85,0.00,,,0.00,VWS V13.01,2013-02-23 07:29:00,
2013-02-23 01:30:00,26.4,23.7,30.02,West,264,13.3,13.9,90,0.00,,,0.00,VWS V13.01,2013-02-23 07:30:00,
2013-02-23 01:31:00,24.7,20.8,30.02,West,273,7.4,8.3,85,0.00,,,0.00,VWS V13.01,2013-02-23 07:31:00,
2013-02-23 01:32:00,24.7,20.7,30.02,West,273,7.3,8.2,85,0.00,,,0.00,VWS V13.01,2013-02-23 07:32:00,
2013-02-23 01:33:00,24.9,20.9,30.02,West,273,6.8,8.4,84,0.00,,,0.00,VWS V13.01,2013-02-23 07:33:00,
2013-02-23 01:34:00,24.6,20.5,30.02,West,271,7.5,7.6,84,0.00,,,0.00,VWS V13.01,2013-02-23 07:34:00,
2013-02-23 01:35:00,26.5,23.9,30.02,WSW,248,8.4,11.5,90,0.00,,,0.00,VWS V13.01,2013-02-23 07:35:00,
2013-02-23 01:36:00,24.9,20.8,30.02,West,276,7.0,7.6,84,0.00,,,0.00,VWS V13.01,2013-02-23 07:36:00,
2013-02-23 01:37:00,24.8,20.7,30.01,West,271,7.3,7.5,84,0.00,,,0.00,VWS V13.01,2013-02-23 07:37:00,
2013-02-23 01:38:00,24.8,20.6,30.02,West,277,7.1,7.6,84,0.00,,,0.00,VWS V13.01,2013-02-23 07:38:00,
2013-02-23 01:39:00,24.9,20.7,30.02,West,271,7.6,7.6,84,0.00,,,0.00,VWS V13.01,2013-02-23 07:39:00,
2013-02-23 01:40:00,26.3,23.7,30.02,West,274,8.6,10.8,90,0.00,,,0.00,VWS V13.01,2013-02-23 07:40:00,
2013-02-23 01:41:00,24.7,20.5,30.02,West,271,8.1,8.1,84,0.00,,,0.00,VWS V13.01,2013-02-23 07:41:00,
2013-02-23 01:42:00,24.7,20.5,30.02,West,271,8.0,8.0,84,0.00,,,0.00,VWS V13.01,2013-02-23 07:42:00,
2013-02-23 01:43:00,24.8,20.6,30.02,West,274,7.0,8.3,84,0.00,,,0.00,VWS V13.01,2013-02-23 07:43:00,
2013-02-23 01:44:00,24.8,20.6,30.02,West,281,7.3,7.8,84,0.00,,,0.00,VWS V13.01,2013-02-23 07:44:00,
2013-02-23 01:45:00,26.3,23.8,30.02,WSW,249,9.1,11.4,90,0.00,,,0.00,VWS V13.01,2013-02-23 07:45:00,
2013-02-23 01:46:00,24.9,20.6,30.02,West,273,7.7,8.1,84,0.00,,,0.00,VWS V13.01,2013-02-23 07:46:00,
2013-02-23 01:47:00,24.8,20.5,30.02,West,277,5.4,7.6,83,0.00,,,0.00,VWS V13.01,2013-02-23 07:47:00,
2013-02-23 01:48:00,25.0,20.7,30.02,West,273,7.1,8.0,84,0.00,,,0.00,VWS V13.01,2013-02-23 07:48:00,
2013-02-23 01:49:00,25.0,20.8,30.02,WNW,285,6.2,7.5,84,0.00,,,0.00,VWS V13.01,2013-02-23 07:49:00,
2013-02-23 01:50:00,26.0,23.5,30.02,West,262,12.0,13.0,90,0.00,,,0.00,VWS V13.01,2013-02-23 07:50:00,
2013-02-23 01:51:00,24.7,20.5,30.02,West,281,6.7,6.7,84,0.00,,,0.00,VWS V13.01,2013-02-23 07:51:00,
2013-02-23 01:52:00,24.6,20.4,30.02,West,281,7.2,7.4,84,0.00,,,0.00,VWS V13.01,2013-02-23 07:52:00,
2013-02-23 01:53:00,24.6,20.4,30.02,West,274,7.0,7.5,84,0.00,,,0.00,VWS V13.01,2013-02-23 07:53:00,
2013-02-23 01:54:00,24.7,20.5,30.02,WNW,284,5.5,7.1,84,0.00,,,0.00,VWS V13.01,2013-02-23 07:54:00,
2013-02-23 01:55:00,26.1,23.5,30.01,West,270,12.5,14.8,90,0.00,,,0.00,VWS V13.01,2013-02-23 07:55:00,
2013-02-23 01:56:00,24.5,20.4,30.02,West,270,7.2,7.2,84,0.00,,,0.00,VWS V13.01,2013-02-23 07:56:00,
2013-02-23 01:57:00,24.6,20.5,30.02,West,276,6.6,7.5,84,0.00,,,0.00,VWS V13.01,2013-02-23 07:57:00,
2013-02-23 01:58:00,24.4,20.3,30.02,West,270,6.6,7.5,84,0.00,,,0.00,VWS V13.01,2013-02-23 07:58:00,
2013-02-23 01:59:00,24.5,20.4,30.02,West,277,6.2,6.7,84,0.00,,,0.00,VWS V13.01,2013-02-23 07:59:00,
2013-02-23 02:00:00,26.0,23.3,30.02,West,266,12.7,13.6,90,0.00,,,0.00,VWS V13.01,2013-02-23 08:00:00,
2013-02-23 02:01:00,24.4,20.3,30.02,West,271,6.0,6.2,84,0.00,,,0.00,VWS V13.01,2013-02-23 08:01:00,
2013-02-23 02:02:00,24.5,20.3,30.02,West,274,6.2,6.2,84,0.00,,,0.00,VWS V13.01,2013-02-23 08:02:00,
2013-02-23 02:03:00,24.5,20.3,30.02,West,274,6.6,6.6,84,0.00,,,0.00,VWS V13.01,2013-02-23 08:03:00,
2013-02-23 02:04:00,24.6,20.4,30.02,West,276,5.9,5.9,84,0.00,,,0.00,VWS V13.01,2013-02-23 08:04:00,
2013-02-23 02:05:00,26.0,23.3,30.01,West,277,10.7,13.7,89,0.00,,,0.00,VWS V13.01,2013-02-23 08:05:00,
2013-02-23 02:06:00,24.4,20.2,30.02,West,263,5.6,6.7,84,0.00,,,0.00,VWS V13.01,2013-02-23 08:06:00,
2013-02-23 02:07:00,24.3,20.1,30.02,West,274,5.6,6.6,84,0.00,,,0.00,VWS V13.01,2013-02-23 08:07:00,
2013-02-23 02:08:00,24.3,20.0,30.02,West,273,5.9,5.9,84,0.00,,,0.00,VWS V13.01,2013-02-23 08:08:00,
2013-02-23 02:09:00,24.3,20.0,30.02,West,260,5.6,6.1,83,0.00,,,0.00,VWS V13.01,2013-02-23 08:09:00,
2013-02-23 02:10:00,25.8,23.1,30.02,West,264,10.7,13.3,89,0.00,,,0.00,VWS V13.01,2013-02-23 08:10:00,
2013-02-23 02:11:00,24.6,20.3,30.02,West,271,6.0,6.9,83,0.00,,,0.00,VWS V13.01,2013-02-23 08:11:00,
2013-02-23 02:12:00,24.3,20.0,30.02,West,276,5.8,6.7,83,0.00,,,0.00,VWS V13.01,2013-02-23 08:12:00,
2013-02-23 02:13:00,24.1,19.9,30.02,West,269,5.8,6.9,84,0.00,,,0.00,VWS V13.01,2013-02-23 08:13:00,
2013-02-23 02:14:00,24.4,20.2,30.02,West,271,5.9,6.9,84,0.00,,,0.00,VWS V13.01,2013-02-23 08:14:00,
2013-02-23 02:15:00,26.0,23.3,30.01,West,262,8.5,11.6,89,0.00,,,0.00,VWS V13.01,2013-02-23 08:15:00,
2013-02-23 02:16:00,24.0,19.9,30.02,West,271,5.8,6.4,84,0.00,,,0.00,VWS V13.01,2013-02-23 08:16:00,
2013-02-23 02:17:00,24.4,20.2,30.02,West,276,5.6,6.2,84,0.00,,,0.00,VWS V13.01,2013-02-23 08:17:00,
2013-02-23 02:18:00,24.1,19.9,30.02,West,274,5.3,5.5,84,0.00,,,0.00,VWS V13.01,2013-02-23 08:18:00,
2013-02-23 02:19:00,24.2,19.8,30.02,West,271,5.1,5.3,83,0.00,,,0.00,VWS V13.01,2013-02-23 08:19:00,
2013-02-23 02:20:00,25.5,22.9,30.02,West,270,11.3,15.1,90,0.00,,,0.00,VWS V13.01,2013-02-23 08:20:00,
2013-02-23 02:21:00,24.1,19.4,30.02,West,270,5.7,6.2,82,0.00,,,0.00,VWS V13.01,2013-02-23 08:21:00,
2013-02-23 02:22:00,23.9,19.3,30.02,WNW,283,4.7,5.5,82,0.00,,,0.00,VWS V13.01,2013-02-23 08:22:00,
2013-02-23 02:23:00,24.0,19.5,30.02,WNW,283,4.7,5.4,82,0.00,,,0.00,VWS V13.01,2013-02-23 08:23:00,
2013-02-23 02:24:00,23.8,19.3,30.02,West,277,4.7,5.8,83,0.00,,,0.00,VWS V13.01,2013-02-23 08:24:00,
2013-02-23 02:25:00,25.7,23.0,30.02,West,264,10.2,13.6,89,0.00,,,0.00,VWS V13.01,2013-02-23 08:25:00,
2013-02-23 02:26:00,23.8,19.5,30.02,WNW,283,2.0,5.6,83,0.00,,,0.00,VWS V13.01,2013-02-23 08:26:00,
2013-02-23 02:27:00,23.5,19.3,30.02,WNW,295,4.9,4.9,84,0.00,,,0.00,VWS V13.01,2013-02-23 08:27:00,
2013-02-23 02:28:00,23.3,19.1,30.02,WNW,288,2.0,4.9,84,0.00,,,0.00,VWS V13.01,2013-02-23 08:28:00,
2013-02-23 02:29:00,23.4,19.3,30.02,WNW,285,2.0,4.5,84,0.00,,,0.00,VWS V13.01,2013-02-23 08:29:00,
2013-02-23 02:30:00,25.6,22.9,30.02,West,264,14.3,15.3,89,0.00,,,0.00,VWS V13.01,2013-02-23 08:30:00,
2013-02-23 02:31:00,23.2,19.1,30.02,West,280,4.8,5.2,84,0.00,,,0.00,VWS V13.01,2013-02-23 08:31:00,
2013-02-23 02:32:00,23.2,19.1,30.02,WNW,290,4.5,4.8,84,0.00,,,0.00,VWS V13.01,2013-02-23 08:32:00,
2013-02-23 02:33:00,23.2,19.1,30.02,WNW,295,3.2,3.3,84,0.00,,,0.00,VWS V13.01,2013-02-23 08:33:00,
2013-02-23 02:34:00,23.2,19.1,30.02,WNW,295,0.0,0.0,84,0.00,,,0.00,VWS V13.01,2013-02-23 08:34:00,
2013-02-23 02:35:00,25.3,22.5,30.02,WSW,255,10.4,13.9,89,0.00,,,0.00,VWS V13.01,2013-02-23 08:35:00,
2013-02-23 02:36:00,23.1,18.9,30.02,WNW,295,0.0,0.0,84,0.00,,,0.00,VWS V13.01,2013-02-23 08:36:00,
2013-02-23 02:37:00,23.0,18.8,30.02,WNW,295,0.0,0.0,84,0.00,,,0.00,VWS V13.01,2013-02-23 08:37:00,
2013-02-23 02:38:00,23.0,18.8,30.02,WNW,295,0.0,0.0,84,0.00,,,0.00,VWS V13.01,2013-02-23 08:38:00,
2013-02-23 02:39:00,23.1,18.9,30.02,WNW,295,0.0,0.0,84,0.00,,,0.00,VWS V13.01,2013-02-23 08:39:00,
2013-02-23 02:40:00,25.5,22.9,30.01,West,269,11.4,13.7,90,0.00,,,0.00,VWS V13.01,2013-02-23 08:40:00,
2013-02-23 02:41:00,23.0,18.5,30.02,WNW,295,0.0,0.0,83,0.00,,,0.00,VWS V13.01,2013-02-23 08:41:00,
2013-02-23 02:42:00,22.9,18.4,30.02,WNW,295,0.0,0.0,83,0.00,,,0.00,VWS V13.01,2013-02-23 08:42:00,
2013-02-23 02:43:00,22.8,18.3,30.02,WNW,295,0.0,0.0,83,0.00,,,0.00,VWS V13.01,2013-02-23 08:43:00,
2013-02-23 02:44:00,22.6,18.2,30.03,WNW,295,0.0,0.0,83,0.00,,,0.00,VWS V13.01,2013-02-23 08:44:00,
2013-02-23 02:45:00,25.6,23.0,30.01,West,262,11.4,11.4,90,0.00,,,0.00,VWS V13.01,2013-02-23 08:45:00,
2013-02-23 02:46:00,23.0,18.6,30.03,WNW,295,0.0,0.0,83,0.00,,,0.00,VWS V13.01,2013-02-23 08:46:00,
2013-02-23 02:47:00,22.4,18.0,30.03,WNW,295,0.0,0.0,83,0.00,,,0.00,VWS V13.01,2013-02-23 08:47:00,
2013-02-23 02:48:00,22.5,18.1,30.03,WNW,295,0.0,0.0,83,0.00,,,0.00,VWS V13.01,2013-02-23 08:48:00,
2013-02-23 02:49:00,22.3,17.9,30.03,WNW,295,0.0,0.0,83,0.00,,,0.00,VWS V13.01,2013-02-23 08:49:00,
2013-02-23 02:50:00,25.4,22.8,30.01,West,263,12.1,13.9,90,0.00,,,0.00,VWS V13.01,2013-02-23 08:50:00,
2013-02-23 02:51:00,21.7,17.4,30.03,WNW,295,0.0,0.0,83,0.00,,,0.00,VWS V13.01,2013-02-23 08:51:00,
2013-02-23 02:52:00,22.1,17.8,30.03,WNW,295,0.0,0.0,83,0.00,,,0.00,VWS V13.01,2013-02-23 08:52:00,
2013-02-23 02:53:00,22.5,18.2,30.03,WNW,295,0.0,0.0,83,0.00,,,0.00,VWS V13.01,2013-02-23 08:53:00,
2013-02-23 02:54:00,22.1,17.8,30.03,WNW,295,0.0,0.0,83,0.00,,,0.00,VWS V13.01,2013-02-23 08:54:00,
2013-02-23 02:55:00,25.4,22.8,30.01,West,266,11.6,11.6,90,0.00,,,0.00,VWS V13.01,2013-02-23 08:55:00,
2013-02-23 02:56:00,22.1,17.9,30.03,WNW,295,0.0,0.0,84,0.00,,,0.00,VWS V13.01,2013-02-23 08:56:00,
2013-02-23 02:57:00,22.1,18.0,30.03,WNW,295,0.0,0.0,84,0.00,,,0.00,VWS V13.01,2013-02-23 08:57:00,
2013-02-23 02:58:00,22.0,17.9,30.03,WNW,295,0.0,0.0,84,0.00,,,0.00,VWS V13.01,2013-02-23 08:58:00,
2013-02-23 02:59:00,21.9,17.8,30.03,WNW,295,0.0,0.0,84,0.00,,,0.00,VWS V13.01,2013-02-23 08:59:00,
2013-02-23 03:00:00,25.2,22.5,30.01,West,262,8.7,12.0,90,0.00,,,0.00,VWS V13.01,2013-02-23 09:00:00,
2013-02-23 03:01:00,22.0,17.9,30.03,WNW,295,0.0,0.0,84,0.00,,,0.00,VWS V13.01,2013-02-23 09:01:00,
2013-02-23 03:02:00,21.7,17.6,30.03,WNW,295,0.0,0.0,84,0.00,,,0.00,VWS V13.01,2013-02-23 09:02:00,
2013-02-23 03:03:00,21.9,17.8,30.03,WNW,295,0.0,0.0,84,0.00,,,0.00,VWS V13.01,2013-02-23 09:03:00,
2013-02-23 03:04:00,21.8,17.8,30.03,WNW,295,0.0,0.0,84,0.00,,,0.00,VWS V13.01,2013-02-23 09:04:00,
2013-02-23 03:05:00,25.4,22.8,30.01,WSW,255,10.3,10.7,90,0.00,,,0.00,VWS V13.01,2013-02-23 09:05:00,
2013-02-23 03:06:00,21.7,17.8,30.03,WNW,295,0.0,0.0,84,0.00,,,0.00,VWS V13.01,2013-02-23 09:06:00,
2013-02-23 03:07:00,21.7,17.8,30.03,WNW,295,0.0,0.0,85,0.00,,,0.00,VWS V13.01,2013-02-23 09:07:00,
2013-02-23 03:08:00,21.8,17.9,30.03,WNW,295,0.0,0.0,84,0.00,,,0.00,VWS V13.01,2013-02-23 09:08:00,
2013-02-23 03:09:00,21.5,17.6,30.03,WNW,295,0.0,0.0,85,0.00,,,0.00,VWS V13.01,2013-02-23 09:09:00,
2013-02-23 03:10:00,25.5,23.0,30.01,West,273,9.1,9.1,90,0.00,,,0.00,VWS V13.01,2013-02-23 09:10:00,
2013-02-23 03:11:00,21.4,17.5,30.03,WNW,295,0.0,0.0,85,0.00,,,0.00,VWS V13.01,2013-02-23 09:11:00,
2013-02-23 03:12:00,21.5,17.6,30.03,WNW,295,0.0,0.0,85,0.00,,,0.00,VWS V13.01,2013-02-23 09:12:00,
2013-02-23 03:13:00,21.2,17.4,30.03,WNW,295,0.0,0.0,85,0.00,,,0.00,VWS V13.01,2013-02-23 09:13:00,
2013-02-23 03:14:00,21.5,17.6,30.03,WNW,295,0.0,0.0,85,0.00,,,0.00,VWS V13.01,2013-02-23 09:14:00,
2013-02-23 03:15:00,25.6,23.0,30.01,West,269,8.6,10.1,90,0.00,,,0.00,VWS V13.01,2013-02-23 09:15:00,
2013-02-23 03:16:00,21.3,17.5,30.03,WNW,295,0.0,0.0,85,0.00,,,0.00,VWS V13.01,2013-02-23 09:16:00,
2013-02-23 03:17:00,21.3,17.4,30.03,WNW,295,0.0,0.0,85,0.00,,,0.00,VWS V13.01,2013-02-23 09:17:00,
2013-02-23 03:18:00,21.4,17.5,30.03,WNW,295,0.0,0.0,85,0.00,,,0.00,VWS V13.01,2013-02-23 09:18:00,
2013-02-23 03:19:00,21.3,17.4,30.03,WNW,295,0.0,0.0,85,0.00,,,0.00,VWS V13.01,2013-02-23 09:19:00,
2013-02-23 03:20:00,25.3,22.7,30.01,WSW,242,7.5,10.9,90,0.00,,,0.00,VWS V13.01,2013-02-23 09:20:00,
2013-02-23 03:21:00,21.3,17.3,30.03,WNW,295,0.0,0.0,84,0.00,,,0.00,VWS V13.01,2013-02-23 09:21:00,
2013-02-23 03:22:00,21.3,17.3,30.03,WNW,295,0.0,0.0,84,0.00,,,0.00,VWS V13.01,2013-02-23 09:22:00,
2013-02-23 03:23:00,21.3,17.3,30.03,WNW,295,0.0,0.0,84,0.00,,,0.00,VWS V13.01,2013-02-23 09:23:00,
2013-02-23 03:24:00,21.2,17.3,30.03,WNW,295,0.0,0.0,84,0.00,,,0.00,VWS V13.01,2013-02-23 09:24:00,
2013-02-23 03:25:00,25.3,22.5,30.01,West,266,9.7,9.7,89,0.00,,,0.00,VWS V13.01,2013-02-23 09:25:00,
2013-02-23 03:26:00,21.3,17.5,30.03,WNW,295,0.0,0.0,85,0.00,,,0.00,VWS V13.01,2013-02-23 09:26:00,
2013-02-23 03:27:00,21.3,17.5,30.03,WNW,295,0.0,0.0,85,0.00,,,0.00,VWS V13.01,2013-02-23 09:27:00,
2013-02-23 03:28:00,21.0,17.3,30.03,WNW,295,0.0,0.0,85,0.00,,,0.00,VWS V13.01,2013-02-23 09:28:00,
2013-02-23 03:29:00,21.1,17.4,30.03,WNW,295,0.0,0.0,85,0.00,,,0.00,VWS V13.01,2013-02-23 09:29:00,
2013-02-23 03:30:00,25.2,22.3,30.01,WSW,252,10.9,13.4,89,0.00,,,0.00,VWS V13.01,2013-02-23 09:30:00,
2013-02-23 03:31:00,21.0,17.5,30.03,WNW,295,0.0,0.0,86,0.00,,,0.00,VWS V13.01,2013-02-23 09:31:00,
2013-02-23 03:32:00,20.9,17.4,30.03,WNW,295,0.0,0.0,86,0.00,,,0.00,VWS V13.01,2013-02-23 09:32:00,
2013-02-23 03:33:00,21.0,17.5,30.04,WNW,295,0.0,0.0,86,0.00,,,0.00,VWS V13.01,2013-02-23 09:33:00,
2013-02-23 03:34:00,20.8,17.4,30.04,WNW,295,0.0,0.0,86,0.00,,,0.00,VWS V13.01,2013-02-23 09:34:00,
2013-02-23 03:35:00,25.2,22.3,30.01,WSW,246,8.4,11.2,89,0.00,,,0.00,VWS V13.01,2013-02-23 09:35:00,
2013-02-23 03:36:00,20.7,17.4,30.03,WNW,295,0.0,0.0,87,0.00,,,0.00,VWS V13.01,2013-02-23 09:36:00,
2013-02-23 03:37:00,20.6,17.4,30.03,WNW,295,0.0,0.0,87,0.00,,,0.00,VWS V13.01,2013-02-23 09:37:00,
2013-02-23 03:38:00,20.6,17.4,30.04,WNW,295,0.0,0.0,87,0.00,,,0.00,VWS V13.01,2013-02-23 09:38:00,
2013-02-23 03:39:00,20.8,17.6,30.03,SSW,212,5.0,5.0,87,0.00,,,0.00,VWS V13.01,2013-02-23 09:39:00,
2013-02-23 03:40:00,25.2,21.7,30.01,West,280,13.7,15.9,86,0.00,,,0.00,VWS V13.01,2013-02-23 09:40:00,
2013-02-23 03:41:00,20.5,17.3,30.03,SW,232,4.3,4.7,87,0.00,,,0.00,VWS V13.01,2013-02-23 09:41:00,
2013-02-23 03:42:00,20.3,17.1,30.03,SW,232,4.7,4.7,87,0.00,,,0.00,VWS V13.01,2013-02-23 09:42:00,
2013-02-23 03:43:00,20.2,17.0,30.03,SW,231,4.8,4.8,87,0.00,,,0.00,VWS V13.01,2013-02-23 09:43:00,
2013-02-23 03:44:00,20.3,17.1,30.03,SW,229,4.8,5.0,87,0.00,,,0.00,VWS V13.01,2013-02-23 09:44:00,
2013-02-23 03:45:00,25.0,21.1,30.01,West,266,13.0,14.7,85,0.00,,,0.00,VWS V13.01,2013-02-23 09:45:00,
2013-02-23 03:46:00,20.1,16.9,30.03,SW,228,4.8,5.0,87,0.00,,,0.00,VWS V13.01,2013-02-23 09:46:00,
2013-02-23 03:47:00,20.3,17.1,30.03,SW,229,4.8,4.8,87,0.00,,,0.00,VWS V13.01,2013-02-23 09:47:00,
2013-02-23 03:48:00,20.2,17.0,30.03,SW,226,2.0,4.8,87,0.00,,,0.00,VWS V13.01,2013-02-23 09:48:00,
2013-02-23 03:49:00,20.1,16.9,30.03,SW,231,4.8,4.8,87,0.00,,,0.00,VWS V13.01,2013-02-23 09:49:00,
2013-02-23 03:50:00,25.1,21.4,30.01,West,264,13.7,13.9,86,0.00,,,0.00,VWS V13.01,2013-02-23 09:50:00,
2013-02-23 03:51:00,20.5,17.3,30.03,SW,229,2.0,2.0,87,0.00,,,0.00,VWS V13.01,2013-02-23 09:51:00,
2013-02-23 03:52:00,20.1,16.9,30.03,SW,224,2.0,2.0,87,0.00,,,0.00,VWS V13.01,2013-02-23 09:52:00,
2013-02-23 03:53:00,20.1,17.0,30.03,SW,222,2.0,2.0,87,0.00,,,0.00,VWS V13.01,2013-02-23 09:53:00,
2013-02-23 03:54:00,20.2,17.1,30.03,SW,225,2.0,2.0,88,0.00,,,0.00,VWS V13.01,2013-02-23 09:54:00,
2013-02-23 03:55:00,25.3,21.6,30.02,WSW,255,11.2,13.2,86,0.00,,,0.00,VWS V13.01,2013-02-23 09:55:00,
2013-02-23 03:56:00,20.0,17.0,30.03,SW,222,2.0,2.0,88,0.00,,,0.00,VWS V13.01,2013-02-23 09:56:00,
2013-02-23 03:57:00,20.3,17.3,30.03,SW,224,2.0,2.0,88,0.00,,,0.00,VWS V13.01,2013-02-23 09:57:00,
2013-02-23 03:58:00,20.2,17.2,30.03,SW,221,2.0,3.3,88,0.00,,,0.00,VWS V13.01,2013-02-23 09:58:00,
2013-02-23 03:59:00,20.1,17.1,30.03,SSW,198,0.0,2.7,88,0.00,,,0.00,VWS V13.01,2013-02-23 09:59:00,
2013-02-23 04:00:00,25.1,21.0,30.02,West,281,11.3,15.9,84,0.00,,,0.00,VWS V13.01,2013-02-23 10:00:00,
2013-02-23 04:01:00,20.1,17.1,30.03,SSW,198,0.0,0.0,88,0.00,,,0.00,VWS V13.01,2013-02-23 10:01:00,
2013-02-23 04:02:00,20.5,17.5,30.03,SSW,198,0.0,0.0,88,0.00,,,0.00,VWS V13.01,2013-02-23 10:02:00,
2013-02-23 04:03:00,20.2,17.2,30.03,SSW,198,0.0,0.0,88,0.00,,,0.00,VWS V13.01,2013-02-23 10:03:00,
2013-02-23 04:04:00,20.5,17.5,30.03,SSW,198,0.0,0.0,88,0.00,,,0.00,VWS V13.01,2013-02-23 10:04:00,
2013-02-23 04:05:00,24.8,20.3,30.02,West,266,14.8,15.6,83,0.00,,,0.00,VWS V13.01,2013-02-23 10:05:00,
2013-02-23 04:06:00,20.2,17.3,30.03,SSW,198,0.0,0.0,88,0.00,,,0.00,VWS V13.01,2013-02-23 10:06:00,
2013-02-23 04:07:00,20.2,17.4,30.03,SSW,198,0.0,0.0,89,0.00,,,0.00,VWS V13.01,2013-02-23 10:07:00,
2013-02-23 04:08:00,20.1,17.3,30.03,SSW,198,0.0,0.0,89,0.00,,,0.00,VWS V13.01,2013-02-23 10:08:00,
2013-02-23 04:09:00,20.2,17.5,30.03,SSW,198,0.0,0.0,89,0.00,,,0.00,VWS V13.01,2013-02-23 10:09:00,
2013-02-23 04:10:00,25.1,20.7,30.02,SE,134,12.8,13.8,83,0.00,,,0.00,VWS V13.01,2013-02-23 10:10:00,
2013-02-23 04:11:00,20.5,17.9,30.03,SSW,198,0.0,0.0,89,0.00,,,0.00,VWS V13.01,2013-02-23 10:11:00,
2013-02-23 04:12:00,20.2,17.6,30.03,SSW,198,0.0,0.0,89,0.00,,,0.00,VWS V13.01,2013-02-23 10:12:00,
2013-02-23 04:13:00,20.3,17.7,30.03,SSW,198,0.0,0.0,90,0.00,,,0.00,VWS V13.01,2013-02-23 10:13:00,
2013-02-23 04:14:00,20.2,17.6,30.03,SSW,198,0.0,0.0,90,0.00,,,0.00,VWS V13.01,2013-02-23 10:14:00,
2013-02-23 04:15:00,24.9,20.5,30.02,West,262,8.8,12.7,83,0.00,,,0.00,VWS V13.01,2013-02-23 10:15:00,
2013-02-23 04:16:00,20.2,17.7,30.03,SSW,198,0.0,0.0,90,0.00,,,0.00,VWS V13.01,2013-02-23 10:16:00,
2013-02-23 04:17:00,20.3,17.8,30.03,SSW,198,0.0,0.0,90,0.00,,,0.00,VWS V13.01,2013-02-23 10:17:00,
2013-02-23 04:18:00,20.4,17.9,30.03,SSW,198,0.0,0.0,90,0.00,,,0.00,VWS V13.01,2013-02-23 10:18:00,
2013-02-23 04:19:00,20.3,17.8,30.03,SSW,198,0.0,0.0,90,0.00,,,0.00,VWS V13.01,2013-02-23 10:19:00,
2013-02-23 04:20:00,25.0,20.6,30.02,SW,228,14.6,16.0,83,0.00,,,0.00,VWS V13.01,2013-02-23 10:20:00,
2013-02-23 04:21:00,20.2,17.7,30.03,SSW,198,0.0,0.0,90,0.00,,,0.00,VWS V13.01,2013-02-23 10:21:00,
2013-02-23 04:22:00,20.2,17.7,30.03,SSW,198,0.0,0.0,90,0.00,,,0.00,VWS V13.01,2013-02-23 10:22:00,
2013-02-23 04:23:00,20.4,17.9,30.03,SSW,198,0.0,0.0,90,0.00,,,0.00,VWS V13.01,2013-02-23 10:23:00,
2013-02-23 04:24:00,20.5,18.0,30.04,SSW,198,0.0,0.0,90,0.00,,,0.00,VWS V13.01,2013-02-23 10:24:00,
2013-02-23 04:25:00,25.0,20.8,30.02,West,264,12.4,14.1,84,0.00,,,0.00,VWS V13.01,2013-02-23 10:25:00,
2013-02-23 04:26:00,20.4,17.9,30.03,SSW,198,0.0,0.0,90,0.00,,,0.00,VWS V13.01,2013-02-23 10:26:00,
2013-02-23 04:27:00,20.4,17.9,30.03,SSW,198,0.0,0.0,90,0.00,,,0.00,VWS V13.01,2013-02-23 10:27:00,
2013-02-23 04:28:00,20.3,17.9,30.03,SSW,198,0.0,0.0,90,0.00,,,0.00,VWS V13.01,2013-02-23 10:28:00,
2013-02-23 04:29:00,20.4,18.0,30.03,SSW,198,0.0,0.0,90,0.00,,,0.00,VWS V13.01,2013-02-23 10:29:00,
2013-02-23 04:30:00,24.7,20.6,30.02,West,276,11.0,11.9,84,0.00,,,0.00,VWS V13.01,2013-02-23 10:30:00,
2013-02-23 04:31:00,20.4,18.0,30.03,SSW,198,0.0,0.0,90,0.00,,,0.00,VWS V13.01,2013-02-23 10:31:00,
2013-02-23 04:32:00,20.7,18.3,30.03,SSW,198,0.0,0.0,90,0.00,,,0.00,VWS V13.01,2013-02-23 10:32:00,
2013-02-23 04:33:00,20.5,18.1,30.03,SSW,198,0.0,0.0,90,0.00,,,0.00,VWS V13.01,2013-02-23 10:33:00,
2013-02-23 04:34:00,20.5,18.1,30.03,SSW,198,0.0,0.0,90,0.00,,,0.00,VWS V13.01,2013-02-23 10:34:00,
2013-02-23 04:35:00,24.8,20.9,30.02,SE,132,10.1,11.1,85,0.00,,,0.00,VWS V13.01,2013-02-23 10:35:00,
2013-02-23 04:36:00,20.6,18.2,30.03,SSW,198,0.0,0.0,90,0.00,,,0.00,VWS V13.01,2013-02-23 10:36:00,
2013-02-23 04:37:00,20.7,18.3,30.03,SSW,198,0.0,0.0,90,0.00,,,0.00,VWS V13.01,2013-02-23 10:37:00,
2013-02-23 04:38:00,20.5,18.1,30.04,SSW,198,0.0,0.0,90,0.00,,,0.00,VWS V13.01,2013-02-23 10:38:00,
2013-02-23 04:39:00,20.9,18.5,30.03,SSW,198,0.0,0.0,90,0.00,,,0.00,VWS V13.01,2013-02-23 10:39:00,
2013-02-23 04:40:00,24.9,21.1,30.02,WSW,250,9.1,9.8,85,0.00,,,0.00,VWS V13.01,2013-02-23 10:40:00,
2013-02-23 04:41:00,20.7,18.4,30.04,SSW,198,0.0,0.0,90,0.00,,,0.00,VWS V13.01,2013-02-23 10:41:00,
2013-02-23 04:42:00,21.0,18.6,30.04,SSW,198,0.0,0.0,90,0.00,,,0.00,VWS V13.01,2013-02-23 10:42:00,
2013-02-23 04:43:00,20.5,18.1,30.04,SSW,198,0.0,0.0,90,0.00,,,0.00,VWS V13.01,2013-02-23 10:43:00,
2013-02-23 04:44:00,20.8,18.5,30.03,SSW,198,0.0,0.0,90,0.00,,,0.00,VWS V13.01,2013-02-23 10:44:00,
2013-02-23 04:45:00,24.5,21.0,30.02,WSW,242,11.1,12.7,86,0.00,,,0.00,VWS V13.01,2013-02-23 10:45:00,
2013-02-23 04:46:00,20.9,18.5,30.03,SSW,198,0.0,0.0,90,0.00,,,0.00,VWS V13.01,2013-02-23 10:46:00,
2013-02-23 04:47:00,20.8,18.4,30.03,SSW,198,0.0,0.0,90,0.00,,,0.00,VWS V13.01,2013-02-23 10:47:00,
2013-02-23 04:48:00,20.7,18.3,30.03,SSW,198,0.0,0.0,90,0.00,,,0.00,VWS V13.01,2013-02-23 10:48:00,
2013-02-23 04:49:00,20.9,18.6,30.03,SSW,198,0.0,0.0,90,0.00,,,0.00,VWS V13.01,2013-02-23 10:49:00,
2013-02-23 04:50:00,24.6,21.0,30.02,West,262,12.3,15.2,86,0.00,,,0.00,VWS V13.01,2013-02-23 10:50:00,
2013-02-23 04:51:00,20.8,18.5,30.03,SSW,198,0.0,0.0,90,0.00,,,0.00,VWS V13.01,2013-02-23 10:51:00,
2013-02-23 04:52:00,20.7,18.4,30.03,SSW,198,0.0,0.0,90,0.00,,,0.00,VWS V13.01,2013-02-23 10:52:00,
2013-02-23 04:53:00,20.7,18.3,30.04,SSW,198,0.0,0.0,90,0.00,,,0.00,VWS V13.01,2013-02-23 10:53:00,
2013-02-23 04:54:00,21.1,18.7,30.04,SSW,198,0.0,0.0,90,0.00,,,0.00,VWS V13.01,2013-02-23 10:54:00,
2013-02-23 04:55:00,24.6,20.7,30.01,West,271,9.8,14.5,85,0.00,,,0.00,VWS V13.01,2013-02-23 10:55:00,
2013-02-23 04:56:00,21.0,18.6,30.04,SSW,198,0.0,0.0,90,0.00,,,0.00,VWS V13.01,2013-02-23 10:56:00,
2013-02-23 04:57:00,21.0,18.6,30.04,SSW,198,0.0,0.0,90,0.00,,,0.00,VWS V13.01,2013-02-23 10:57:00,
2013-02-23 04:58:00,21.1,18.6,30.04,SSW,198,0.0,0.0,90,0.00,,,0.00,VWS V13.01,2013-02-23 10:58:00,
2013-02-23 04:59:00,20.9,18.4,30.04,SSW,198,0.0,0.0,90,0.00,,,0.00,VWS V13.01,2013-02-23 10:59:00,
2013-02-23 05:00:00,24.4,20.6,30.02,West,277,12.3,13.8,85,0.00,,,0.00,VWS V13.01,2013-02-23 11:00:00,
2013-02-23 05:01:00,21.0,18.5,30.04,SSW,198,0.0,0.0,90,0.00,,,0.00,VWS V13.01,2013-02-23 11:01:00,
2013-02-23 05:02:00,20.8,18.3,30.04,SSW,198,0.0,0.0,90,0.00,,,0.00,VWS V13.01,2013-02-23 11:02:00,
2013-02-23 05:03:00,20.7,18.2,30.04,SSW,198,0.0,0.0,90,0.00,,,0.00,VWS V13.01,2013-02-23 11:03:00,
2013-02-23 05:04:00,21.0,18.5,30.04,SSW,198,0.0,0.0,90,0.00,,,0.00,VWS V13.01,2013-02-23 11:04:00,
2013-02-23 05:05:00,24.5,20.6,30.02,West,266,11.9,13.2,85,0.00,,,0.00,VWS V13.01,2013-02-23 11:05:00,
2013-02-23 05:06:00,21.0,18.4,30.04,SSW,198,0.0,0.0,90,0.00,,,0.00,VWS V13.01,2013-02-23 11:06:00,
2013-02-23 05:07:00,21.0,18.4,30.04,SSW,198,0.0,0.0,89,0.00,,,0.00,VWS V13.01,2013-02-23 11:07:00,
2013-02-23 05:08:00,20.9,18.2,30.04,SSW,198,0.0,0.0,89,0.00,,,0.00,VWS V13.01,2013-02-23 11:08:00,
2013-02-23 05:09:00,20.8,18.1,30.03,SSW,198,0.0,0.0,89,0.00,,,0.00,VWS V13.01,2013-02-23 11:09:00,
2013-02-23 05:10:00,24.3,20.4,30.02,West,276,12.9,14.5,85,0.00,,,0.00,VWS V13.01,2013-02-23 11:10:00,
2013-02-23 05:11:00,20.9,18.2,30.04,SSW,198,0.0,0.0,89,0.00,,,0.00,VWS V13.01,2013-02-23 11:11:00,
2013-02-23 05:12:00,20.9,18.2,30.03,SSW,198,0.0,0.0,89,0.00,,,0.00,VWS V13.01,2013-02-23 11:12:00,
2013-02-23 05:13:00,20.9,18.2,30.03,SSW,198,0.0,0.0,89,0.00,,,0.00,VWS V13.01,2013-02-23 11:13:00,
2013-02-23 05:14:00,21.0,18.3,30.03,SSW,198,0.0,0.0,89,0.00,,,0.00,VWS V13.01,2013-02-23 11:14:00,
2013-02-23 05:15:00,24.6,20.8,30.02,WSW,257,13.0,13.0,85,0.00,,,0.00,VWS V13.01,2013-02-23 11:15:00,
2013-02-23 05:16:00,21.1,18.4,30.03,SSW,198,0.0,0.0,89,0.00,,,0.00,VWS V13.01,2013-02-23 11:16:00,
2013-02-23 05:17:00,21.0,18.3,30.03,SSW,198,0.0,0.0,89,0.00,,,0.00,VWS V13.01,2013-02-23 11:17:00,
2013-02-23 05:18:00,20.9,18.2,30.03,SSW,198,0.0,0.0,89,0.00,,,0.00,VWS V13.01,2013-02-23 11:18:00,
2013-02-23 05:19:00,21.2,18.5,30.03,SSW,198,0.0,0.0,89,0.00,,,0.00,VWS V13.01,2013-02-23 11:19:00,
2013-02-23 05:20:00,24.5,20.5,30.02,West,274,11.5,12.5,84,0.00,,,0.00,VWS V13.01,2013-02-23 11:20:00,
2013-02-23 05:21:00,20.9,18.2,30.03,SSW,198,0.0,0.0,89,0.00,,,0.00,VWS V13.01,2013-02-23 11:21:00,
2013-02-23 05:22:00,21.0,18.4,30.03,SSW,198,0.0,0.0,89,0.00,,,0.00,VWS V13.01,2013-02-23 11:22:00,
2013-02-23 05:23:00,20.9,18.2,30.03,SSW,198,0.0,0.0,89,0.00,,,0.00,VWS V13.01,2013-02-23 11:23:00,
2013-02-23 05:24:00,20.4,17.7,30.03,SSW,198,0.0,0.0,89,0.00,,,0.00,VWS V13.01,2013-02-23 11:24:00,
2013-02-23 05:25:00,24.4,20.3,30.03,WSW,245,8.5,11.7,84,0.00,,,0.00,VWS V13.01,2013-02-23 11:25:00,
2013-02-23 05:26:00,20.6,17.9,30.03,SSW,198,0.0,0.0,89,0.00,,,0.00,VWS V13.01,2013-02-23 11:26:00,
2013-02-23 05:27:00,20.9,18.2,30.03,SSW,198,0.0,0.0,89,0.00,,,0.00,VWS V13.01,2013-02-23 11:27:00,
2013-02-23 05:28:00,20.9,18.2,30.03,SSW,198,0.0,0.0,89,0.00,,,0.00,VWS V13.01,2013-02-23 11:28:00,
2013-02-23 05:29:00,20.8,18.1,30.03,SSW,198,0.0,0.0,89,0.00,,,0.00,VWS V13.01,2013-02-23 11:29:00,
2013-02-23 05:30:00,24.4,20.3,30.03,West,266,10.8,10.9,84,0.00,,,0.00,VWS V13.01,2013-02-23 11:30:00,
2013-02-23 05:31:00,20.5,17.8,30.03,SSW,198,0.0,0.0,89,0.00,,,0.00,VWS V13.01,2013-02-23 11:31:00,
2013-02-23 05:32:00,20.6,17.9,30.03,SSW,198,0.0,0.0,89,0.00,,,0.00,VWS V13.01,2013-02-23 11:32:00,
2013-02-23 05:33:00,20.5,17.8,30.03,SSW,198,0.0,0.0,89,0.00,,,0.00,VWS V13.01,2013-02-23 11:33:00,
2013-02-23 05:34:00,20.8,18.0,30.03,SSW,198,0.0,0.0,89,0.00,,,0.00,VWS V13.01,2013-02-23 11:34:00,
2013-02-23 05:35:00,24.5,20.5,30.03,West,273,8.8,11.6,85,0.00,,,0.00,VWS V13.01,2013-02-23 11:35:00,
2013-02-23 05:36:00,21.0,18.2,30.03,SSW,198,0.0,0.0,89,0.00,,,0.00,VWS V13.01,2013-02-23 11:36:00,
2013-02-23 05:37:00,20.6,17.8,30.03,SSW,198,0.0,0.0,89,0.00,,,0.00,VWS V13.01,2013-02-23 11:37:00,
2013-02-23 05:38:00,20.6,17.8,30.03,SSW,198,0.0,0.0,89,0.00,,,0.00,VWS V13.01,2013-02-23 11:38:00,
2013-02-23 05:39:00,20.3,17.5,30.03,SSW,198,0.0,0.0,89,0.00,,,0.00,VWS V13.01,2013-02-23 11:39:00,
2013-02-23 05:40:00,24.3,20.3,30.03,West,271,9.5,11.4,85,0.00,,,0.00,VWS V13.01,2013-02-23 11:40:00,
2013-02-23 05:41:00,20.2,17.4,30.03,SSW,198,0.0,0.0,89,0.00,,,0.00,VWS V13.01,2013-02-23 11:41:00,
2013-02-23 05:42:00,20.2,17.4,30.03,SSW,198,0.0,0.0,89,0.00,,,0.00,VWS V13.01,2013-02-23 11:42:00,
2013-02-23 05:43:00,20.5,17.7,30.03,SSW,198,0.0,0.0,89,0.00,,,0.00,VWS V13.01,2013-02-23 11:43:00,
2013-02-23 05:44:00,20.6,17.8,30.03,SSW,198,0.0,0.0,88,0.00,,,0.00,VWS V13.01,2013-02-23 11:44:00,
2013-02-23 05:45:00,24.3,20.3,30.02,West,259,8.9,11.6,85,0.00,,,0.00,VWS V13.01,2013-02-23 11:45:00,
2013-02-23 05:46:00,20.3,17.4,30.03,SSW,198,0.0,0.0,88,0.00,,,0.00,VWS V13.01,2013-02-23 11:46:00,
2013-02-23 05:50:00,24.4,20.3,30.02,West,281,9.4,10.7,84,0.00,,,0.00,VWS V13.01,2013-02-23 11:50:00,
2013-02-23 05:55:00,24.3,20.3,30.02,WNW,285,7.5,8.9,84,0.00,,,0.00,VWS V13.01,2013-02-23 11:55:00,
2013-02-23 06:00:00,24.4,20.5,30.02,West,281,8.6,9.3,85,0.00,,,0.00,VWS V13.01,2013-02-23 12:00:00,
2013-02-23 06:05:00,24.3,20.2,30.02,West,274,8.6,10.9,84,0.00,,,0.00,VWS V13.01,2013-02-23 12:05:00,
2013-02-23 06:10:00,24.5,20.5,30.02,West,273,7.0,10.2,85,0.00,,,0.00,VWS V13.01,2013-02-23 12:10:00,
2013-02-23 06:15:00,24.1,20.2,30.02,West,278,9.3,10.0,85,0.00,,,0.00,VWS V13.01,2013-02-23 12:15:00,
2013-02-23 06:20:00,24.2,20.4,30.02,West,273,8.1,10.3,85,0.00,,,0.00,VWS V13.01,2013-02-23 12:20:00,
2013-02-23 06:25:00,23.9,20.2,30.02,West,269,10.0,11.1,85,0.00,,,0.00,VWS V13.01,2013-02-23 12:25:00,
2013-02-23 06:30:00,23.9,20.2,30.03,WSW,255,7.4,10.6,86,0.00,,,0.00,VWS V13.01,2013-02-23 12:30:00,
2013-02-23 06:35:00,23.8,20.1,30.03,West,266,8.9,9.9,85,0.00,,,0.00,VWS V13.01,2013-02-23 12:35:00,
2013-02-23 06:40:00,23.4,19.8,30.03,West,278,7.1,9.9,86,0.00,,,0.00,VWS V13.01,2013-02-23 12:40:00,
2013-02-23 06:45:00,23.8,20.1,30.02,West,266,8.3,8.3,86,0.00,,,0.00,VWS V13.01,2013-02-23 12:45:00,
2013-02-23 06:50:00,24.1,20.4,30.02,West,264,9.8,10.3,86,0.00,,,0.00,VWS V13.01,2013-02-23 12:50:00,
2013-02-23 06:55:00,23.7,20.0,30.02,West,260,6.0,8.0,85,0.00,,,0.00,VWS V13.01,2013-02-23 12:55:00,
2013-02-23 07:00:00,23.6,20.0,30.02,West,274,7.1,8.6,86,0.00,,,0.00,VWS V13.01,2013-02-23 13:00:00,
2013-02-23 07:05:00,23.5,19.9,30.02,West,260,8.3,8.7,86,0.00,,,0.00,VWS V13.01,2013-02-23 13:05:00,
2013-02-23 07:10:00,23.2,19.7,30.02,West,266,7.8,8.3,86,0.00,,,0.00,VWS V13.01,2013-02-23 13:10:00,
2013-02-23 07:15:00,23.6,20.1,30.02,WSW,256,7.0,8.8,86,0.00,,,0.00,VWS V13.01,2013-02-23 13:15:00,
2013-02-23 07:20:00,23.6,20.1,30.02,West,267,6.7,8.3,86,0.00,,,0.00,VWS V13.01,2013-02-23 13:20:00,
2013-02-23 07:25:00,23.7,20.2,30.02,West,269,7.8,8.9,86,0.00,,,0.00,VWS V13.01,2013-02-23 13:25:00,
2013-02-23 07:30:00,24.0,20.5,30.02,WNW,300,8.0,8.9,86,0.00,,,0.00,VWS V13.01,2013-02-23 13:30:00,
2013-02-23 07:35:00,23.7,20.3,30.03,WNW,283,6.6,8.6,87,0.00,,,0.00,VWS V13.01,2013-02-23 13:35:00,
2013-02-23 07:40:00,23.5,20.2,30.03,WSW,257,7.3,9.3,87,0.00,,,0.00,VWS V13.01,2013-02-23 13:40:00,
2013-02-23 07:45:00,23.7,20.6,30.03,West,262,7.1,9.4,88,0.00,,,0.00,VWS V13.01,2013-02-23 13:45:00,
2013-02-23 07:50:00,23.8,20.6,30.03,West,270,8.4,8.4,87,0.00,,,0.00,VWS V13.01,2013-02-23 13:50:00,
2013-02-23 07:55:00,23.8,20.4,30.03,West,269,8.0,8.0,87,0.00,,,0.00,VWS V13.01,2013-02-23 13:55:00,
2013-02-23 08:00:00,23.9,20.3,30.03,West,271,10.4,11.2,86,0.00,,,0.00,VWS V13.01,2013-02-23 14:00:00,
2013-02-23 08:05:00,24.0,20.4,30.03,West,274,9.8,10.6,86,0.00,,,0.00,VWS V13.01,2013-02-23 14:05:00,
2013-02-23 08:10:00,24.2,20.4,30.03,West,280,7.1,10.4,85,0.00,,,0.00,VWS V13.01,2013-02-23 14:10:00,
2013-02-23 08:15:00,24.0,20.0,30.03,West,266,9.7,10.1,84,0.00,,,0.00,VWS V13.01,2013-02-23 14:15:00,
2013-02-23 08:20:00,24.2,20.1,30.03,West,278,10.1,12.1,84,0.00,,,0.00,VWS V13.01,2013-02-23 14:20:00,
2013-02-23 08:25:00,24.3,20.1,30.02,NW,307,6.0,8.5,84,0.00,,,0.00,VWS V13.01,2013-02-23 14:25:00,
2013-02-23 08:30:00,24.5,20.3,30.02,West,276,8.8,11.2,84,0.00,,,0.00,VWS V13.01,2013-02-23 14:30:00,
2013-02-23 08:35:00,24.7,20.2,30.02,WNW,283,5.8,7.0,83,0.00,,,0.00,VWS V13.01,2013-02-23 14:35:00,
2013-02-23 08:40:00,24.9,20.5,30.02,WSW,255,4.8,8.0,83,0.00,,,0.00,VWS V13.01,2013-02-23 14:40:00,
2013-02-23 08:45:00,25.2,20.6,30.02,West,277,7.4,8.2,82,0.00,,,0.00,VWS V13.01,2013-02-23 14:45:00,
2013-02-23 08:50:00,25.4,20.7,30.02,WNW,285,9.7,12.4,82,0.00,,,0.00,VWS V13.01,2013-02-23 14:50:00,
2013-02-23 08:55:00,25.3,20.4,30.02,West,277,8.9,11.1,81,0.00,,,0.00,VWS V13.01,2013-02-23 14:55:00,
2013-02-23 09:00:00,24.9,20.1,30.02,WNW,284,10.7,13.2,82,0.00,,,0.00,VWS V13.01,2013-02-23 15:00:00,
2013-02-23 09:05:00,25.1,20.2,30.03,WNW,284,10.6,12.0,81,0.00,,,0.00,VWS V13.01,2013-02-23 15:05:00,
2013-02-23 09:10:00,25.0,19.8,30.03,West,276,10.9,12.2,80,0.00,,,0.00,VWS V13.01,2013-02-23 15:10:00,
2013-02-23 09:15:00,25.1,20.2,30.02,WNW,288,12.1,12.4,81,0.00,,,0.00,VWS V13.01,2013-02-23 15:15:00,
2013-02-23 09:20:00,25.2,19.9,30.03,WNW,300,11.1,11.6,80,0.00,,,0.00,VWS V13.01,2013-02-23 15:20:00,
2013-02-23 09:25:00,25.2,20.3,30.03,WNW,295,13.3,13.3,81,0.00,,,0.00,VWS V13.01,2013-02-23 15:25:00,
2013-02-23 09:30:00,25.2,19.9,30.03,West,278,12.6,16.5,80,0.00,,,0.00,VWS V13.01,2013-02-23 15:30:00,
2013-02-23 09:35:00,25.4,20.0,30.02,WNW,300,15.3,15.8,80,0.00,,,0.00,VWS V13.01,2013-02-23 15:35:00,
2013-02-23 09:40:00,25.6,20.2,30.03,WNW,297,12.7,13.3,80,0.00,,,0.00,VWS V13.01,2013-02-23 15:40:00,
2013-02-23 09:45:00,26.0,20.4,30.02,WNW,297,11.9,14.3,79,0.00,,,0.00,VWS V13.01,2013-02-23 15:45:00,
2013-02-23 09:50:00,26.2,20.0,30.03,NW,304,11.2,13.5,77,0.00,,,0.00,VWS V13.01,2013-02-23 15:50:00,
2013-02-23 09:55:00,26.5,20.4,30.03,NNW,328,4.3,8.1,78,0.00,,,0.00,VWS V13.01,2013-02-23 15:55:00,
2013-02-23 10:00:00,26.9,20.7,30.02,WNW,295,12.6,13.9,77,0.00,,,0.00,VWS V13.01,2013-02-23 16:00:00,
2013-02-23 10:05:00,26.6,20.3,30.02,WNW,295,14.4,14.4,77,0.00,,,0.00,VWS V13.01,2013-02-23 16:05:00,
2013-02-23 10:10:00,27.4,20.8,30.02,WNW,295,11.3,13.0,76,0.00,,,0.00,VWS V13.01,2013-02-23 16:10:00,
2013-02-23 10:14:00,27.1,20.4,30.02,WNW,285,13.0,13.0,75,0.00,,,0.00,VWS V13.01,2013-02-23 16:14:00,
2013-02-23 10:19:00,27.2,20.2,30.02,WNW,301,11.2,12.3,75,0.00,,,0.00,VWS V13.01,2013-02-23 16:19:00,
2013-02-23 10:24:00,27.1,19.9,30.02,WNW,284,8.0,10.6,74,0.00,,,0.00,VWS V13.01,2013-02-23 16:24:00,
2013-02-23 10:29:00,27.2,20.2,30.01,West,269,9.0,9.3,74,0.00,,,0.00,VWS V13.01,2013-02-23 16:29:00,
2013-02-23 10:34:00,27.4,20.2,30.01,West,281,10.9,11.9,74,0.00,,,0.00,VWS V13.01,2013-02-23 16:34:00,
2013-02-23 10:39:00,27.4,20.7,30.01,WSW,249,9.0,9.4,75,0.00,,,0.00,VWS V13.01,2013-02-23 16:39:00,
2013-02-23 10:44:00,27.3,20.1,30.02,West,263,9.3,10.3,74,0.00,,,0.00,VWS V13.01,2013-02-23 16:44:00,
2013-02-23 10:49:00,27.8,20.5,30.02,WNW,301,11.9,12.7,74,0.00,,,0.00,VWS V13.01,2013-02-23 16:49:00,
2013-02-23 10:54:00,27.9,20.3,30.01,West,278,9.2,10.5,73,0.00,,,0.00,VWS V13.01,2013-02-23 16:54:00,
2013-02-23 10:59:00,27.8,20.2,30.02,West,270,6.3,11.7,73,0.00,,,0.00,VWS V13.01,2013-02-23 16:59:00,
2013-02-23 11:04:00,28.0,20.2,30.02,WNW,283,8.2,9.2,72,0.00,,,0.00,VWS V13.01,2013-02-23 17:04:00,
2013-02-23 11:09:00,28.1,20.5,30.02,WSW,240,5.9,7.6,73,0.00,,,0.00,VWS V13.01,2013-02-23 17:09:00,
2013-02-23 11:14:00,27.9,20.0,30.02,West,280,5.6,6.8,72,0.00,,,0.00,VWS V13.01,2013-02-23 17:14:00,
2013-02-23 11:19:00,28.3,20.7,30.02,WNW,295,7.5,9.7,73,0.00,,,0.00,VWS V13.01,2013-02-23 17:19:00,
2013-02-23 11:24:00,28.4,20.9,30.02,West,274,6.8,7.8,73,0.00,,,0.00,VWS V13.01,2013-02-23 17:24:00,
2013-02-23 11:29:00,28.9,21.1,30.02,WNW,287,6.6,6.8,72,0.00,,,0.00,VWS V13.01,2013-02-23 17:29:00,
2013-02-23 11:34:00,28.9,20.7,30.02,West,273,7.8,10.7,71,0.00,,,0.00,VWS V13.01,2013-02-23 17:34:00,
2013-02-23 11:39:00,29.0,20.8,30.02,West,274,4.6,6.6,71,0.00,,,0.00,VWS V13.01,2013-02-23 17:39:00,
2013-02-23 11:44:00,29.5,21.3,30.02,West,274,10.1,11.7,71,0.00,,,0.00,VWS V13.01,2013-02-23 17:44:00,
2013-02-23 11:49:00,29.0,20.8,30.02,WNW,292,7.8,7.8,71,0.00,,,0.00,VWS V13.01,2013-02-23 17:49:00,
2013-02-23 11:54:00,29.1,20.9,30.02,West,273,8.6,10.4,71,0.00,,,0.00,VWS V13.01,2013-02-23 17:54:00,
2013-02-23 11:59:00,29.1,20.9,30.01,SW,235,0.0,6.4,71,0.00,,,0.00,VWS V13.01,2013-02-23 17:59:00,
2013-02-23 12:04:00,29.3,20.8,30.01,West,263,10.1,10.6,70,0.00,,,0.00,VWS V13.01,2013-02-23 18:04:00,
2013-02-23 12:09:00,29.5,20.9,30.01,WSW,256,9.9,10.6,70,0.00,,,0.00,VWS V13.01,2013-02-23 18:09:00,
2013-02-23 12:14:00,29.5,21.2,30.00,WSW,252,8.9,9.6,71,0.00,,,0.00,VWS V13.01,2013-02-23 18:14:00,
2013-02-23 12:19:00,29.5,20.5,30.00,West,263,9.2,9.6,69,0.00,,,0.00,VWS V13.01,2013-02-23 18:19:00,
2013-02-23 12:24:00,30.2,21.3,30.00,West,269,7.4,9.3,69,0.00,,,0.00,VWS V13.01,2013-02-23 18:24:00,
2013-02-23 12:29:00,30.0,21.0,30.00,West,273,7.4,8.8,69,0.00,,,0.00,VWS V13.01,2013-02-23 18:29:00,
2013-02-23 12:34:00,30.0,20.8,30.00,West,267,6.1,8.6,68,0.00,,,0.00,VWS V13.01,2013-02-23 18:34:00,
2013-02-23 12:39:00,30.3,20.5,30.00,West,271,6.2,9.3,67,0.00,,,0.00,VWS V13.01,2013-02-23 18:39:00,
2013-02-23 12:44:00,30.7,21.4,30.00,West,266,6.6,9.3,68,0.00,,,0.00,VWS V13.01,2013-02-23 18:44:00,
2013-02-23 12:49:00,30.8,20.9,30.00,WSW,253,7.9,9.9,66,0.00,,,0.00,VWS V13.01,2013-02-23 18:49:00,
2013-02-23 12:54:00,30.4,20.3,30.00,West,263,9.4,10.1,66,0.00,,,0.00,VWS V13.01,2013-02-23 18:54:00,
2013-02-23 12:59:00,30.1,20.8,30.00,West,259,5.5,8.3,68,0.00,,,0.00,VWS V13.01,2013-02-23 18:59:00,
2013-02-23 13:04:00,30.0,20.5,30.01,WSW,238,7.0,8.1,67,0.00,,,0.00,VWS V13.01,2013-02-23 19:04:00,
2013-02-23 13:09:00,30.6,20.7,30.01,West,259,6.6,11.4,66,0.00,,,0.00,VWS V13.01,2013-02-23 19:09:00,
2013-02-23 13:14:00,30.1,20.4,30.00,WSW,256,8.3,13.1,67,0.00,,,0.00,VWS V13.01,2013-02-23 19:14:00,
2013-02-23 13:19:00,29.8,19.7,30.00,WSW,240,8.4,9.4,66,0.00,,,0.00,VWS V13.01,2013-02-23 19:19:00,
2013-02-23 13:24:00,29.5,19.6,30.00,WSW,242,8.5,10.0,66,0.00,,,0.00,VWS V13.01,2013-02-23 19:24:00,
2013-02-23 13:29:00,29.5,19.9,30.00,West,259,9.8,10.7,67,0.00,,,0.00,VWS V13.01,2013-02-23 19:29:00,
2013-02-23 13:34:00,29.7,20.2,30.00,West,259,6.1,14.9,67,0.00,,,0.00,VWS V13.01,2013-02-23 19:34:00,
2013-02-23 13:39:00,30.0,20.7,30.01,West,262,9.8,11.4,68,0.00,,,0.00,VWS V13.01,2013-02-23 19:39:00,
2013-02-23 13:44:00,30.1,20.2,30.00,SW,235,11.0,13.3,66,0.00,,,0.00,VWS V13.01,2013-02-23 19:44:00,
2013-02-23 13:49:00,30.1,20.2,30.00,SW,219,10.9,10.9,66,0.00,,,0.00,VWS V13.01,2013-02-23 19:49:00,
2013-02-23 13:54:00,29.9,20.8,30.00,WSW,238,11.1,12.5,68,0.00,,,0.00,VWS V13.01,2013-02-23 19:54:00,
2013-02-23 13:59:00,29.7,20.9,30.00,WSW,240,12.2,12.2,69,0.00,,,0.00,VWS V13.01,2013-02-23 19:59:00,
2013-02-23 14:04:00,29.9,21.6,30.00,WSW,243,7.9,11.4,71,0.00,,,0.00,VWS V13.01,2013-02-23 20:04:00,
2013-02-23 14:09:00,30.0,21.1,30.00,West,260,8.3,10.6,69,0.00,,,0.00,VWS V13.01,2013-02-23 20:09:00,
2013-02-23 14:14:00,30.0,21.1,30.00,SW,217,10.3,12.3,69,0.00,,,0.00,VWS V13.01,2013-02-23 20:14:00,
2013-02-23 14:19:00,29.8,21.0,30.00,SW,236,8.9,12.4,69,0.00,,,0.00,VWS V13.01,2013-02-23 20:19:00,
2013-02-23 14:24:00,29.6,21.2,30.00,WSW,239,10.9,14.0,70,0.00,,,0.00,VWS V13.01,2013-02-23 20:24:00,
2013-02-23 14:29:00,29.7,21.4,30.00,SW,222,10.8,11.1,71,0.00,,,0.00,VWS V13.01,2013-02-23 20:29:00,
2013-02-23 14:34:00,29.8,21.1,30.00,SW,217,8.0,9.9,70,0.00,,,0.00,VWS V13.01,2013-02-23 20:34:00,
2013-02-23 14:39:00,29.8,21.0,29.99,WSW,238,9.3,10.4,69,0.00,,,0.00,VWS V13.01,2013-02-23 20:39:00,
2013-02-23 14:44:00,30.1,21.5,29.99,WSW,239,11.3,11.7,70,0.00,,,0.00,VWS V13.01,2013-02-23 20:44:00,
2013-02-23 14:49:00,30.2,21.3,29.99,WSW,243,10.3,11.4,69,0.00,,,0.00,VWS V13.01,2013-02-23 20:49:00,
2013-02-23 14:54:00,30.1,21.2,29.99,SW,221,10.9,10.9,69,0.00,,,0.00,VWS V13.01,2013-02-23 20:54:00,
2013-02-23 14:59:00,30.4,21.7,29.99,WSW,257,6.5,9.2,70,0.00,,,0.00,VWS V13.01,2013-02-23 20:59:00,
2013-02-23 15:04:00,30.3,21.6,29.99,SW,231,7.6,9.3,70,0.00,,,0.00,VWS V13.01,2013-02-23 21:04:00,
2013-02-23 15:09:00,30.3,21.4,29.99,WSW,238,11.5,11.5,69,0.00,,,0.00,VWS V13.01,2013-02-23 21:09:00,
2013-02-23 15:14:00,30.2,21.3,29.99,SW,228,10.4,10.8,69,0.00,,,0.00,VWS V13.01,2013-02-23 21:14:00,
2013-02-23 15:19:00,30.3,21.5,29.99,WSW,242,7.6,9.1,69,0.00,,,0.00,VWS V13.01,2013-02-23 21:19:00,
2013-02-23 15:24:00,30.2,21.1,29.99,West,270,7.5,11.6,68,0.00,,,0.00,VWS V13.01,2013-02-23 21:24:00,
2013-02-23 15:29:00,30.5,21.6,29.99,WSW,240,9.9,10.9,69,0.00,,,0.00,VWS V13.01,2013-02-23 21:29:00,
2013-02-23 15:34:00,30.7,21.8,29.99,West,259,6.6,9.9,69,0.00,,,0.00,VWS V13.01,2013-02-23 21:34:00,
2013-02-23 15:39:00,30.5,21.7,29.99,West,266,9.0,11.8,69,0.00,,,0.00,VWS V13.01,2013-02-23 21:39:00,
2013-02-23 15:44:00,30.8,21.8,30.00,WSW,240,7.7,9.8,69,0.00,,,0.00,VWS V13.01,2013-02-23 21:44:00,
2013-02-23 15:49:00,30.9,21.4,30.00,WSW,239,9.8,9.8,68,0.00,,,0.00,VWS V13.01,2013-02-23 21:49:00,
2013-02-23 15:54:00,30.3,21.5,30.00,SW,236,7.3,8.5,70,0.00,,,0.00,VWS V13.01,2013-02-23 21:54:00,
2013-02-23 15:59:00,30.1,22.1,30.00,WSW,239,4.8,8.4,72,0.00,,,0.00,VWS V13.01,2013-02-23 21:59:00,
2013-02-23 16:04:00,29.9,21.9,30.00,WSW,243,11.7,12.1,72,0.00,,,0.00,VWS V13.01,2013-02-23 22:04:00,
2013-02-23 16:09:00,30.0,22.2,29.99,WSW,243,10.9,11.1,72,0.00,,,0.00,VWS V13.01,2013-02-23 22:09:00,
2013-02-23 16:14:00,30.1,22.8,29.99,West,260,5.3,8.2,74,0.00,,,0.00,VWS V13.01,2013-02-23 22:14:00,
2013-02-23 16:19:00,30.2,22.0,30.00,WSW,252,8.1,10.1,71,0.00,,,0.00,VWS V13.01,2013-02-23 22:19:00,
2013-02-23 16:24:00,30.1,22.1,30.00,WSW,238,11.3,11.3,72,0.00,,,0.00,VWS V13.01,2013-02-23 22:24:00,
2013-02-23 16:29:00,30.1,22.5,30.00,WSW,238,9.3,10.4,73,0.00,,,0.00,VWS V13.01,2013-02-23 22:29:00,
2013-02-23 16:34:00,29.6,22.2,30.00,WSW,242,8.6,9.1,74,0.00,,,0.00,VWS V13.01,2013-02-23 22:34:00,
2013-02-23 16:39:00,29.6,23.0,30.00,SW,235,7.2,9.0,76,0.00,,,0.00,VWS V13.01,2013-02-23 22:39:00,
2013-02-23 16:44:00,29.3,22.4,30.00,SW,226,8.5,9.3,75,0.00,,,0.00,VWS V13.01,2013-02-23 22:44:00,
2013-02-23 16:49:00,29.6,22.8,30.00,SW,225,8.6,10.7,75,0.00,,,0.00,VWS V13.01,2013-02-23 22:49:00,
2013-02-23 16:54:00,29.5,22.6,30.00,SW,232,8.1,9.3,75,0.00,,,0.00,VWS V13.01,2013-02-23 22:54:00,
2013-02-23 16:59:00,29.2,22.6,30.00,SW,232,8.5,10.4,76,0.00,,,0.00,VWS V13.01,2013-02-23 22:59:00,
2013-02-23 17:04:00,29.2,22.9,30.00,SW,235,8.1,9.1,77,0.00,,,0.00,VWS V13.01,2013-02-23 23:04:00,
2013-02-23 17:09:00,29.0,23.0,30.00,SW,233,7.3,10.1,78,0.00,,,0.00,VWS V13.01,2013-02-23 23:09:00,
2013-02-23 17:14:00,28.9,22.8,30.00,SW,235,7.2,7.5,78,0.00,,,0.00,VWS V13.01,2013-02-23 23:14:00,
2013-02-23 17:19:00,28.6,22.4,30.00,WSW,239,7.3,7.5,77,0.00,,,0.00,VWS V13.01,2013-02-23 23:19:00,
2013-02-23 17:24:00,28.5,21.9,30.01,WSW,240,7.5,9.6,76,0.00,,,0.00,VWS V13.01,2013-02-23 23:24:00,
2013-02-23 17:29:00,28.3,21.3,30.01,WSW,240,6.8,6.8,75,0.00,,,0.00,VWS V13.01,2013-02-23 23:29:00,
2013-02-23 17:34:00,28.3,21.2,30.01,WSW,249,5.1,6.2,74,0.00,,,0.00,VWS V13.01,2013-02-23 23:34:00,
2013-02-23 17:39:00,28.1,20.9,30.01,SW,224,5.5,7.8,74,0.00,,,0.00,VWS V13.01,2013-02-23 23:39:00,
2013-02-23 17:44:00,27.8,20.6,30.01,West,270,6.2,7.1,74,0.00,,,0.00,VWS V13.01,2013-02-23 23:44:00,
2013-02-23 17:49:00,27.8,20.7,30.01,WSW,256,6.6,8.1,74,0.00,,,0.00,VWS V13.01,2013-02-23 23:49:00,
2013-02-23 17:54:00,27.4,20.4,30.01,SW,233,7.8,8.4,75,0.00,,,0.00,VWS V13.01,2013-02-23 23:54:00,
2013-02-23 17:59:00,27.0,20.6,30.01,WSW,239,6.7,7.8,76,0.00,,,0.00,VWS V13.01,2013-02-23 23:59:00,
2013-02-23 18:04:00,26.8,20.7,30.02,SW,229,6.8,6.8,78,0.00,,,0.00,VWS V13.01,2013-02-24 00:04:00,
2013-02-23 18:09:00,26.7,21.2,30.01,SW,222,5.2,7.3,79,0.00,,,0.00,VWS V13.01,2013-02-24 00:09:00,